Preview of NWS' New Version of Forecast
This preview is not operational and should not be used for support decisions.
Latest weather observations around

Auburn-Opelika Airport (KAUO)

Using English Units (Switch to International System of Units)
Date/ Time (CDT) Wind (mph) Vis. (mi) Weather Sky Cond. Temp (°F) Rel. Humidity Wind Chill (°F) Heat Index (°F) Pressure Precip. (in)
Air Dwpt 6 hour Altimeter (inHg) Sea level (inHg) 1 hr 3 hr 6 hr
Max Min
Apr 22 02:56 ESE 9 10 Cloudy SCT018 OVC026 62 57     84%     30.15 30.2      
Apr 22 01:56 ESE 9 10 Cloudy FEW019 OVC028 63 57     81%     30.18 30.22      
Apr 22 01:43 ESE 10 10 Mostly Cloudy FEW018 BKN028 BKN055 63 57     83%     30.19        
Apr 22 01:18 ESE 9 10 Mostly Cloudy SCT020 BKN032 BKN055 63 57     83%     30.19        
Apr 22 00:56 ESE 8 10 Cloudy BKN020 OVC026 63 57     81%     30.21 30.25      
Apr 21 23:56 ESE 9 10 Cloudy OVC018 63 57     81%     30.21 30.26      
Apr 21 22:56 7 10 Cloudy OVC022 64 55     73%     30.22 30.27      
Apr 21 21:56 SE 10 10 Cloudy BKN028 BKN055 OVC065 64 54     70%     30.21 30.26      
Apr 21 20:56 E 9 10 Mostly Cloudy FEW029 BKN065 64 52     65%     30.22 30.27      
Apr 21 19:56 ESE 7 10 Clear CLR 65 52     63%     30.21 30.27      
Apr 21 18:56 ESE 8 10 Partly Cloudy FEW040 SCT070 68 51     55%     30.2 30.26      
Apr 21 17:56 ESE 15 10 Mostly Cloudy SCT060 BKN080 71 49     45%   70 30.2 30.26      
Apr 21 16:56 E 11 10 Mostly Cloudy BKN060 BKN080 73 46     38%   72 30.2 30.26      
Apr 21 15:56 E 11 10 Mostly Clear FEW055 73 44     35%   72 30.2 30.26      
Apr 21 14:56 E 9 10 Mostly Clear FEW065 73 44     35%   72 30.22 30.28      
Apr 21 13:56 ESE 9 10 Mostly Cloudy BKN048 72 42     34%   70 30.24 30.3      
Apr 21 12:56 E 10   Partly Cloudy SCT046 70 41     35%     30.25 30.31      
Apr 21 11:56 E 7   Cloudy OVC050 68 40     36%     30.28 30.34      
Apr 21 10:56 E 15 10 Clear CLR 66 38     36%     30.3 30.36      
Apr 21 09:56 ESE 10 10 Clear CLR 63 37     38%     30.3 30.36      
Apr 21 08:56 E 10 10 Clear CLR 59 40     49%     30.3 30.36      
Apr 21 07:56 E 15   Clear CLR 56 41     57%     30.3 30.36      
Apr 21 05:56 E 7 10 Clear CLR 49 39     69% 46   30.28 30.35      
Apr 21 04:56 ENE 6 10 Clear CLR 49 38     66% 46   30.28 30.34      
Apr 21 03:56 ENE 5 10 Clear CLR 50 37     61% 48   30.26 30.32      
Apr 21 02:56 E 6 10 Clear CLR 51 37     59%     30.26 30.32      
Apr 21 01:56 ENE 7 10 Clear CLR 52 37     57%     30.25 30.32      
Apr 21 00:56 ENE 6 10 Clear CLR 53 36     52%     30.27 30.33      
Apr 20 23:56 E 7 10 Clear CLR 56 36     47%     30.27 30.33      
Apr 20 22:56 ENE 7 10 Clear CLR 57 37     47%     30.27 30.33      
Apr 20 21:56 ENE 8 10 Clear CLR 57 39     51%     30.27 30.34      
Apr 20 20:56 ENE 8 10 Clear CLR 58 40     51%     30.27 30.34      
Apr 20 19:56 ENE 5 10 Clear CLR 61 40     46%     30.27 30.34      
Apr 20 18:56 ENE 6 10 Clear CLR 65 39     38%     30.25 30.32      
Apr 20 17:56 ENE 9 10 Clear CLR 68 38     33%     30.25 30.31      
Apr 20 16:56 NE 9 10 Clear CLR 69 39     33%     30.24 30.31      
Apr 20 15:56 NE 8 10 Clear CLR 69 39     33%     30.25 30.31      
Apr 20 14:56   10 Clear CLR 68 38     33%     30.26 30.33      
Apr 20 13:56 ESE 7 10 Clear CLR 66 38     36%     30.28 30.35      
Apr 20 12:56 E 11 10 Clear CLR 64 36     35%     30.3 30.37      
Apr 20 11:56 ENE 10 10 Clear CLR 61 35     38%     30.31 30.39      
Apr 20 10:56 ENE 11 10 Clear CLR 59 32     36%     30.32 30.39      
Apr 20 09:56 ENE 14 10 Clear CLR 56 31     38%     30.31 30.38      
Apr 20 08:56 ENE 16 10 Clear CLR 52 33     48%     30.3 30.37      
Apr 20 07:56 ENE 13 10 Clear CLR 49 34     56% 44   30.29 30.37      
Apr 20 06:56 NE 8 10 Clear CLR 44 35     70% 40   30.28 30.35      
Apr 20 05:56 NE 10 10 Clear CLR 43 35     73% 37   30.24 30.32      
Apr 20 04:56 NNE 10 10 Clear CLR 43 34     70% 37   30.22 30.28      
Apr 20 03:56 N 10 10 Clear CLR 44 34     67% 39   30.2 30.27      
Apr 20 02:56 NNE 8 10 Clear CLR 45 34     65% 41   30.19 30.26      
Apr 20 01:56 N 8 10 Clear CLR 47 34     60% 43   30.18 30.24      
Apr 20 00:56 N 9 10 Clear CLR 47 35     63% 43   30.19 30.25      
Apr 19 23:56 N 9 10 Clear CLR 49 35     59% 45   30.19 30.25      
Apr 19 22:56 N 10 10 Clear CLR 50 36     58% 46   30.2 30.26      
Apr 19 21:56 N 9 10 Clear CLR 52 38     59%     30.21 30.26      
Apr 19 19:56 N 11 10 Clear CLR 57 41     55%     30.17 30.22      
Apr 19 18:56 NNW 14 10 Clear CLR 62 41     46%     30.13 30.18      
Apr 19 17:56 NNW 14 10 Clear CLR 67 41     39%     30.11 30.16      
Apr 19 16:56 WNW 13 10 Clear CLR 70 42     36%     30.1 30.15      
Apr 19 15:56 NNW 11 10 Clear CLR 71 42     35%   70 30.1 30.14      
Apr 19 14:56 W 15 10 Clear CLR 71 41     34%   69 30.09 30.14      
Apr 19 12:56 WNW 11 10 Clear CLR 70 42     36%     30.11 30.16      
Apr 19 11:56 WNW 13 10 Clear CLR 70 46     42%     30.1 30.14      
Apr 19 10:56 WNW 10 10 Clear CLR 69 45     42%     30.1 30.14      
Apr 19 09:56 NW 11 10 Clear CLR 69 49     49%     30.08 30.12      
Apr 19 08:56 NW 11 10 Clear CLR 67 52     59%     30.06 30.1      
Apr 19 08:34 NNW 11 10 Partly Cloudy SCT019 66 55     68%     30.06        
Notice The following observation data may not be complete
Apr 19 08:21   10 Mostly Cloudy SCT012 BKN019          %              
Apr 19 08:04 WNW 10 10 Mostly Cloudy BKN010 BKN015 64 61     88%     30.05        
Apr 19 07:56 WNW 10 10 Mostly Cloudy BKN008 64 61     90%     30.05 30.09      
Apr 19 06:56 W 7 10 Cloudy OVC006 63 61     93%     30.03 30.07      
Apr 19 05:56 WSW 7 10 Cloudy OVC004 62 61     96%     30.01 30.04      
Apr 19 05:14 WSW 8 10 Cloudy OVC004 61 61     100%     29.99        
Apr 19 04:56 WSW 10 10 Cloudy OVC006 61 60     97%     29.99 30.02      
Apr 19 04:36 SW 7 10 Mostly Cloudy BKN006 61 61     100%     29.98        
Apr 19 04:15 SW 9 10 Partly Cloudy SCT008 63 61     94%     29.98        
Apr 19 03:56 SW 9 10 Mostly Clear FEW010 62 60     93%     29.98 30.02      
Notice The following observation data may not be complete
Jun 12 07:35   10 Mostly Cloudy BKN004          %              
Jun 11 03:56 ESE 7 10 Clear CLR 71 65     81%   72 30.11 30.13      
Jun 08 23:56 Calm 10 Clear   68 61     78%     29.92 29.96      
Jun 08 19:56 Calm 10 Mostly Cloudy BKN050 BKN065 76 61     60%   76 29.89 29.92      
Jun 08 14:56 Calm 10 Mostly Cloudy SCT055 BKN075 78 57     48%   78 29.89 29.93      
Jun 08 06:56 ENE 9 10 Clear CLR 66 58     75%     29.9 29.94      
Jun 08 01:56 E 6 10 Cloudy BKN020 BKN026 OVC036 68 65     90%     29.86 29.89      
Jun 07 11:56 NE 13 10 Cloudy OVC021 76 67     74%   77 29.81 29.84      
Jun 06 10:52 NE 6 10 Mostly Cloudy BKN014 BKN039 77 72     83%   78 29.8        
Jun 06 10:19 N 5 10 Mostly Cloudy SCT011 BKN016 BKN024 75 72     89%   77 29.82        
Jun 06 04:38 SSE 3 10 Cloudy SCT002 OVC100 70 70     100%     29.82        
Jun 05 22:56 SE 5 10 Light Rain SCT026 BKN036 OVC085 73 72     96%   75 29.86 29.89 0    
Jun 05 16:56 SW 8 10 Partly Cloudy FEW019 SCT075 SCT100 79 71     77%   82 29.83 29.86